This demonstration page uses our WeatherBlox Daily Observations layout. Learn more.

Left ArrowRight Arrow

39.92423, -83.80882

Hourly Observations for March 28, 2021

Temp ( °F °C ) Dew Point ( °F °C ) Humidity (%) Winds ( mph kmh ) Pressure ( in mb ) Visibility ( mi km ) Precip ( " mm )
12:26 am 00:26 Cloudy 57 14 57 14 100 100 S 6 9 29.81 1009 10 16 N/A
12:56 am 00:56 Cloudy with Light Rain 58 14.4 58 14.4 100 100 SE 7 11 29.78 1008 10 16 N/A
1:56 am 01:56 Mostly Cloudy with Light Rain 55 12.8 55 12.8 100 100 ESE 6 9 29.72 1007 10 16 N/A
2:03 am 02:03 Mostly Cloudy with Nearby Thunderstorms 55 13 55 13 100 100 SE 8 13 29.71 1006 10 16 N/A
2:42 am 02:42 Cloudy with Thunderstorms 55 13 55 13 100 100 SSE 7 11 29.72 1006 7 11 N/A
2:56 am 02:56 Cloudy with Thunderstorms 56 13.3 56 13.3 100 100 S 6 9 29.71 1006 7 11 N/A
3:03 am 03:03 Cloudy with Rain 55 13 55 13 100 100 S 9 15 29.72 1006 7 11 N/A
3:56 am 03:56 Cloudy with Light Rain 57 13.9 57 13.9 100 100 SSE 10 17 29.64 1004 10 16 N/A
4:31 am 04:31 Cloudy 57 14 57 14 100 100 S 9 15 29.64 1004 10 16 N/A
4:54 am 04:54 Cloudy 57 14 57 14 100 100 SSW 6 9 29.63 1003 10 16 N/A
4:56 am 04:56 Cloudy 57 13.9 57 13.9 100 100 SSW 5 7 29.62 1003 10 16 N/A
5:03 am 05:03 Cloudy 57 14 57 14 100 100 SSW 6 9 29.63 1003 10 16 N/A
5:31 am 05:31 Cloudy 55 13 55 13 100 100 WNW 18 30 29.64 1004 7 11 N/A
5:41 am 05:41 Cloudy with Mist and Fog 54 12 54 12 100 100 WNW 12 19 29.64 1004 3 4 N/A
5:52 am 05:52 Cloudy with Light Rain 54 12 54 12 100 100 NW 20 31 29.65 1004 4 6 N/A
5:56 am 05:56 Cloudy with Rain 52 11.1 52 11.1 100 100 NNW 17 28 29.64 1004 4 6 N/A
6:16 am 06:16 Cloudy with Light Rain 52 11 52 11 100 100 NNW 13 20 29.67 1005 6 10 N/A
6:24 am 06:24 Cloudy with Light Rain 52 11 52 11 100 100 NNW 13 20 29.67 1005 7 11 N/A
6:52 am 06:52 Cloudy with Light Rain 52 11 52 11 100 100 N 9 15 29.67 1005 10 16 N/A
6:56 am 06:56 Cloudy with Light Rain 51 10.6 51 10.6 100 100 N 7 11 29.67 1005 10 16 N/A
7:56 am 07:56 Cloudy with Light Rain 51 10.6 51 10.6 100 100 W 7 11 29.68 1005 10 16 N/A
8:49 am 08:49 Cloudy with Light Rain 52 11 52 11 100 100 WSW 7 11 29.67 1005 8 13 N/A
8:56 am 08:56 Cloudy with Light Rain 51 10.6 51 10.6 100 100 WSW 8 13 29.66 1005 8 13 N/A
9:04 am 09:04 Cloudy with Light Rain 52 11 52 11 100 100 W 17 28 29.69 1005 9 14 N/A
9:56 am 09:56 Cloudy 50 10 50 10 100 100 W 21 33 29.69 1006 10 16 N/A
10:13 am 10:13 Cloudy 48 9 48 9 100 100 WNW 20 31 29.73 1007 10 16 N/A
10:26 am 10:26 Cloudy 48 9 48 9 100 100 WNW 21 33 29.73 1007 10 16 N/A
10:33 am 10:33 Cloudy 48 9 46 8 94 94 W 26 43 29.73 1007 10 16 N/A
10:46 am 10:46 Cloudy 48 9 45 7 87 87 W 22 35 29.74 1007 10 16 N/A
10:56 am 10:56 Cloudy 47 8.3 44 6.7 90 90 W 25 41 29.74 1007 10 16 N/A
11:56 am 11:56 Cloudy 47 8.3 41 5 80 80 WNW 22 35 29.78 1009 10 16 N/A
12:10 pm 12:10 Cloudy 48 9 43 6 82 82 WNW 18 30 29.80 1009 10 16 N/A
12:25 pm 12:25 Cloudy 46 8 39 4 76 76 WNW 24 39 29.81 1009 10 16 N/A
12:56 pm 12:56 Cloudy 45 7.2 39 3.9 80 80 W 22 35 29.82 1010 10 16 N/A
1:56 pm 13:56 Cloudy 42 5.6 35 1.7 76 76 WNW 28 44 29.86 1011 10 16 N/A
2:56 pm 14:56 Cloudy 42 5.6 35 1.7 76 76 W 24 39 29.89 1012 10 16 N/A
3:56 pm 15:56 Cloudy with Light Rain 41 5 36 2.2 82 82 W 23 37 29.92 1013 10 16 N/A
4:56 pm 16:56 Cloudy with Light Rain 40 4.4 37 2.8 89 89 W 20 31 29.96 1015 10 16 N/A
5:18 pm 17:18 Cloudy 41 5 36 2 81 81 W 18 30 29.99 1016 10 16 N/A
5:27 pm 17:27 Cloudy 41 5 36 2 81 81 W 23 37 30.00 1016 10 16 N/A
5:56 pm 17:56 Cloudy with Light Rain 40 4.4 35 1.7 83 83 W 21 33 30.00 1016 10 16 N/A
6:56 pm 18:56 Cloudy with Light Rain 40 4.4 36 2.2 86 86 W 17 28 30.04 1017 10 16 N/A
7:07 pm 19:07 Cloudy 41 5 36 2 81 81 W 15 24 30.06 1018 10 16 N/A
7:56 pm 19:56 Cloudy 41 5 33 0.6 73 73 W 23 37 30.06 1018 10 16 N/A
8:56 pm 20:56 Cloudy 41 5 32 undefined 70 70 W 18 30 30.09 1019 10 16 N/A
9:56 pm 21:56 Cloudy 40 4.4 28 -2.2 63 63 W 18 30 30.13 1020 10 16 N/A
10:56 pm 22:56 Partly Cloudy 38 3.3 28 -2.2 68 68 W 13 20 30.14 1021 10 16 N/A
11:56 pm 23:56 Clear 36 2.2 28 -2.2 73 73 WNW 12 19 30.16 1021 10 16 N/A

Powered by AerisWeather